Powrót do katalogu

FENGYUN 1C DEB

AktywnySSO
NORAD 31667·DEBRIS·🇨🇳 China

Wystrzelony May 10, 1999 z Taiyuan Satellite Launch Center

Loading…

Następne Przeloty (najbliższe 24 godziny)

TLE

ŚwieżeSource: Space-Track

Epoka: Sep 13, 2026, 10:09 UTC

1 31667U 99025CBZ 26256.42325939  .00000303  00000-0  15119-3 0  9992
2 31667  99.0526 121.9604 0051506  21.0745 339.2539 14.23780359599015

Śledź FENGYUN 1C DEB w czasie rzeczywistym z AllMySat

Download on the App Store